Hourly Weather Barmuty

Today, 8 May, Saturday

Time Temperature Precipitation Wind Pressure Humidity
00:00 +3°C° 0 mm 3 mps 742 mmHg 89%
01:00 +4°C° 0 mm 2 mps 742 mmHg 90%
02:00 +4°C° 0 mm 2 mps 742 mmHg 91%
03:00 +3°C° 0.5 mm 3 mps 743 mmHg 92%
04:00 +3°C° 0.5 mm 3 mps 743 mmHg 94%
05:00 +3°C° 0.5 mm 4 mps 744 mmHg 95%
06:00 +1°C° 1.5 mm 4 mps 744 mmHg 95%
07:00 +1°C° 1.5 mm 4 mps 745 mmHg 94%
08:00 +1°C° 0 mm 5 mps 746 mmHg 92%
09:00 +2°C° 0.1 mm 5 mps 746 mmHg 85%
10:00 +3°C° 0.1 mm 5 mps 746 mmHg 79%
11:00 +5°C° 0.1 mm 6 mps 747 mmHg 73%
12:00 +5°C° 0.1 mm 6 mps 747 mmHg 70%
13:00 +7°C° 0.1 mm 6 mps 747 mmHg 67%
14:00 +7°C° 0.1 mm 5 mps 748 mmHg 64%
15:00 +7°C° 0.1 mm 5 mps 748 mmHg 63%
16:00 +8°C° 0.1 mm 5 mps 748 mmHg 62%
17:00 +8°C° 0.1 mm 5 mps 748 mmHg 61%
18:00 +6°C° 0.1 mm 4 mps 748 mmHg 69%
19:00 +5°C° 0.1 mm 3 mps 749 mmHg 77%
20:00 +4°C° 0.1 mm 3 mps 749 mmHg 84%
21:00 +3°C° 0 mm 3 mps 749 mmHg 87%
22:00 +2°C° 0 mm 3 mps 750 mmHg 89%
23:00 +2°C° 0 mm 3 mps 750 mmHg 91%

Tomorrow, 9 May, Sunday

Time Temperature Precipitation Wind Pressure Humidity
00:00 +2°C° 0 mm 3 mps 750 mmHg 92%
01:00 +1°C° 0 mm 3 mps 751 mmHg 93%
02:00 +1°C° 0 mm 3 mps 751 mmHg 94%
03:00 +2°C° 0 mm 2 mps 751 mmHg 94%
04:00 +1°C° 0 mm 2 mps 752 mmHg 94%
05:00 +1°C° 0 mm 2 mps 752 mmHg 94%
06:00 +3°C° 0 mm 2 mps 753 mmHg 88%
07:00 +5°C° 0 mm 2 mps 753 mmHg 81%
08:00 +7°C° 0 mm 2 mps 753 mmHg 75%
09:00 +9°C° 0 mm 2 mps 753 mmHg 68%
10:00 +10°C° 0 mm 2 mps 753 mmHg 60%
11:00 +12°C° 0 mm 2 mps 753 mmHg 53%
12:00 +12°C° 0 mm 3 mps 753 mmHg 51%
13:00 +13°C° 0 mm 3 mps 753 mmHg 48%
14:00 +14°C° 0 mm 3 mps 753 mmHg 46%
15:00 +14°C° 0 mm 3 mps 753 mmHg 48%
16:00 +14°C° 0 mm 3 mps 752 mmHg 49%
17:00 +14°C° 0 mm 3 mps 752 mmHg 51%
18:00 +13°C° 0 mm 3 mps 752 mmHg 58%
19:00 +12°C° 0 mm 3 mps 752 mmHg 65%
20:00 +10°C° 0 mm 3 mps 753 mmHg 72%
21:00 +10°C° 0 mm 3 mps 753 mmHg 73%
22:00 +9°C° 0 mm 3 mps 753 mmHg 74%
23:00 +7°C° 0 mm 4 mps 753 mmHg 75%

Day after tomorrow, 10 May, Monday

Time Temperature Precipitation Wind Pressure Humidity
00:00 +7°C° 0 mm 4 mps 753 mmHg 76%
01:00 +7°C° 0 mm 4 mps 753 mmHg 77%
02:00 +6°C° 0 mm 4 mps 753 mmHg 78%
03:00 +7°C° 0 mm 3 mps 753 mmHg 81%
04:00 +5°C° 0 mm 3 mps 753 mmHg 85%
05:00 +5°C° 0 mm 3 mps 753 mmHg 88%
06:00 +7°C° 0 mm 4 mps 753 mmHg 80%
07:00 +9°C° 0 mm 5 mps 753 mmHg 73%
08:00 +12°C° 0 mm 5 mps 754 mmHg 65%
09:00 +14°C° 0 mm 6 mps 754 mmHg 62%
10:00 +15°C° 0 mm 7 mps 753 mmHg 58%
11:00 +17°C° 0 mm 7 mps 753 mmHg 54%
12:00 +17°C° 0 mm 7 mps 753 mmHg 53%
13:00 +18°C° 0 mm 7 mps 753 mmHg 52%
14:00 +18°C° 0 mm 7 mps 753 mmHg 51%
15:00 +18°C° 0 mm 7 mps 753 mmHg 54%
16:00 +18°C° 0 mm 7 mps 752 mmHg 57%
17:00 +19°C° 0 mm 6 mps 752 mmHg 60%
18:00 +16°C° 0 mm 6 mps 752 mmHg 64%
19:00 +15°C° 0 mm 5 mps 752 mmHg 68%
20:00 +13°C° 0 mm 5 mps 753 mmHg 72%
21:00 +13°C° 0 mm 5 mps 753 mmHg 72%
22:00 +12°C° 0 mm 5 mps 753 mmHg 73%
23:00 +10°C° 0 mm 5 mps 753 mmHg 73%

11 May, Tuesday

Time Temperature Precipitation Wind Pressure Humidity
00:00 +10°C° 0 mm 5 mps 753 mmHg 74%
01:00 +9°C° 0 mm 5 mps 753 mmHg 76%
02:00 +9°C° 0 mm 5 mps 752 mmHg 78%
03:00 +8°C° 0 mm 5 mps 752 mmHg 78%
04:00 +8°C° 0 mm 5 mps 753 mmHg 79%
05:00 +7°C° 0 mm 5 mps 753 mmHg 80%
06:00 +9°C° 0 mm 6 mps 752 mmHg 76%
07:00 +10°C° 0 mm 7 mps 752 mmHg 73%
08:00 +11°C° 0 mm 7 mps 752 mmHg 70%
09:00 +13°C° 0 mm 8 mps 752 mmHg 65%
10:00 +15°C° 0 mm 8 mps 752 mmHg 60%
11:00 +17°C° 0 mm 8 mps 752 mmHg 55%
12:00 +17°C° 0 mm 8 mps 752 mmHg 52%
13:00 +18°C° 0 mm 7 mps 752 mmHg 49%
14:00 +20°C° 0 mm 7 mps 751 mmHg 46%
15:00 +20°C° 0 mm 7 mps 751 mmHg 48%
16:00 +20°C° 0 mm 6 mps 751 mmHg 51%
17:00 +19°C° 0 mm 6 mps 750 mmHg 54%
18:00 +17°C° 0 mm 5 mps 750 mmHg 60%
19:00 +15°C° 0 mm 5 mps 750 mmHg 66%
20:00 +13°C° 0 mm 4 mps 750 mmHg 72%
21:00 +12°C° 0 mm 4 mps 750 mmHg 72%
22:00 +11°C° 0 mm 4 mps 750 mmHg 72%
23:00 +10°C° 0 mm 4 mps 750 mmHg 71%

12 May, Wednesday

Time Temperature Precipitation Wind Pressure Humidity
00:00 +10°C° 0 mm 4 mps 750 mmHg 74%
01:00 +8°C° 0 mm 4 mps 750 mmHg 77%
02:00 +8°C° 0 mm 4 mps 749 mmHg 81%
03:00 +8°C° 0 mm 4 mps 749 mmHg 85%
04:00 +8°C° 0 mm 4 mps 749 mmHg 89%
05:00 +8°C° 0 mm 4 mps 749 mmHg 94%
06:00 +9°C° 0 mm 5 mps 749 mmHg 89%
07:00 +12°C° 0 mm 5 mps 749 mmHg 84%
08:00 +13°C° 0 mm 6 mps 749 mmHg 79%
09:00 +15°C° 0 mm 6 mps 748 mmHg 72%
10:00 +16°C° 0 mm 6 mps 748 mmHg 64%
11:00 +17°C° 0 mm 6 mps 748 mmHg 57%
12:00 +16°C° 0 mm 6 mps 747 mmHg 61%
13:00 +15°C° 0 mm 5 mps 747 mmHg 64%
14:00 +15°C° 0 mm 5 mps 747 mmHg 68%
15:00 +14°C° 0 mm 5 mps 747 mmHg 72%
16:00 +13°C° 0 mm 5 mps 747 mmHg 75%
17:00 +11°C° 0 mm 6 mps 747 mmHg 78%
18:00 +12°C° 0 mm 5 mps 746 mmHg 80%
19:00 +11°C° 0 mm 4 mps 746 mmHg 82%
20:00 +10°C° 0 mm 3 mps 746 mmHg 84%
21:00 +10°C° 0 mm 4 mps 746 mmHg 85%
22:00 +8°C° 0 mm 5 mps 746 mmHg 87%
23:00 +8°C° 0 mm 5 mps 746 mmHg 88%

13 May, Thursday

Time Temperature Precipitation Wind Pressure Humidity
00:00 +7°C° 0 mm 5 mps 746 mmHg 89%
01:00 +7°C° 0 mm 5 mps 745 mmHg 91%
02:00 +6°C° 0 mm 4 mps 745 mmHg 92%
03:00 +6°C° 0 mm 4 mps 745 mmHg 92%
04:00 +6°C° 0 mm 4 mps 745 mmHg 93%
05:00 +7°C° 0 mm 3 mps 744 mmHg 94%
06:00 +7°C° 0 mm 4 mps 744 mmHg 90%
07:00 +8°C° 0 mm 4 mps 744 mmHg 87%
08:00 +10°C° 0 mm 4 mps 744 mmHg 84%
09:00 +10°C° 0.1 mm 4 mps 743 mmHg 80%
10:00 +11°C° 0.1 mm 4 mps 743 mmHg 76%
11:00 +12°C° 0.1 mm 4 mps 743 mmHg 72%
12:00 +12°C° 0.3 mm 4 mps 742 mmHg 71%
13:00 +13°C° 0.3 mm 4 mps 742 mmHg 69%
14:00 +13°C° 0.3 mm 4 mps 742 mmHg 68%
15:00 +13°C° 0.3 mm 5 mps 742 mmHg 70%
16:00 +13°C° 0.3 mm 5 mps 741 mmHg 72%
17:00 +13°C° 0.3 mm 6 mps 741 mmHg 74%
18:00 +10°C° 0.2 mm 5 mps 741 mmHg 80%
19:00 +9°C° 0.2 mm 5 mps 741 mmHg 87%
20:00 +8°C° 0.2 mm 4 mps 741 mmHg 94%
21:00 +8°C° 1 mm 4 mps 741 mmHg 95%
22:00 +8°C° 1 mm 4 mps 741 mmHg 96%
23:00 +8°C° 1 mm 4 mps 740 mmHg 97%
Show more